Simultaneous Nadir Overpasses (SNOs) Predictions

Prediction of SNOs between GOES-17 and LANDSAT-8 Satellite Orbit:

Table of predicted SNOs for the next 14.0 days since TLE Epoch: 9/21/2024
Index Date Time (GOES-17) GOES-17 Lat,Lon LANDSAT-8 Lat,Lon Distance(km) Time Diff (sec)
1 09/21/2024 04:55:55 0.01,-104.68 0.79,-101.09 407.95 12
2 09/21/2024 17:16:02 -0.01,-104.73 0.33,-106.24 172.79 80
3 09/23/2024 17:06:29 0.01,-104.72 -0.27,-103.27 164.31 80
4 09/24/2024 05:27:53 -0.01,-104.67 -0.82,-108.47 431.10 80
5 09/26/2024 05:15:40 -0.02,-104.67 -0.17,-105.50 94.10 80
6 09/28/2024 05:00:46 -0.01,-104.67 0.44,-102.53 243.25 80
7 09/28/2024 17:22:01 0.01,-104.72 0.64,-107.69 337.72 80
8 09/30/2024 17:09:47 -0.01,-104.72 -0.02,-104.72 1.00 80
9 10/02/2024 17:00:12 -0.01,-104.73 -0.65,-101.75 339.22 80
10 10/03/2024 05:21:34 0.01,-104.69 -0.46,-106.93 255.07 80
